North Conway, NH

9:16 PM EST on November 14, 2019 (GMT -0500)
North Conway

Weather History for KCWN - September, 2019

Change the Weather History Date:

Monday, September 16, 2019

  Actual Average (WUND) Record (WUND)
Temperature  
Mean Temperature 69 °F -  
Max Temperature 76 °F - - (-1)
Min Temperature 62 °F - - (-1)
Cooling Degree Days 4    
Growing Degree Days 19 (Base 50)    
Moisture  
Dew Point 41 °F    
Average Humidity 39    
Maximum Humidity 56    
Minimum Humidity 28    
Precipitation  
Precipitation 0.05 in - - ()
Sea Level Pressure  
Sea Level Pressure 29.52 in    
Wind  
Wind Speed 4 mph (WNW)    
Max Wind Speed 10 mph    
Max Gust Speed -    
Visibility 10 miles    
Events Rain    
Averages and records for this station are not official NWS values.
T = Trace of Precipitation, MM = Missing Value Source: NWS Daily Summary

Daily Weather History Graph

Daily Weather History Graph

Search for Another Location

Airport or City:

Astronomy

Sep. 16, 2019 Rise Set
Actual Time 6:24 AM EDT 6:53 PM EDT
Civil Twilight 5:55 AM EDT 7:22 PM EDT
Nautical Twilight 5:21 AM EDT 7:56 PM EDT
Astronomical Twilight 4:46 AM EDT 8:31 PM EDT
Moon 8:22 PM EDT (9/16) 8:31 AM EDT (9/16)
Length of Visible Light 13h 26m
Length of Day
12h 28m
Waning Gibbous, 94% of the Moon is Illuminated
Sep 16
Waning Gibbous
Sep 21
Last Quarter
Sep 28
New
Oct 5
First Quarter
Oct 13
Full

Hourly Weather History & Observations

Time (EDT) Temp. Dew Point Humidity Pressure Visibility Wind Dir Wind Speed Gust Speed Precip Events Conditions
12:58 AM 66.9 °F 37.2 °F 34% 29.55 in 10.0 mi NW 6.9 mph - N/A   Clear
1:58 AM 62.6 °F 39.7 °F 43% 29.55 in 10.0 mi Calm Calm - N/A   Clear
2:58 AM 63.0 °F 37.9 °F 40% 29.54 in 10.0 mi SSW 3.5 mph - N/A   Mostly Cloudy
3:58 AM 62.4 °F 37.6 °F 40% 29.55 in 10.0 mi Calm Calm - N/A   Scattered Clouds
4:58 AM 63.1 °F 37.0 °F 38% 29.54 in 10.0 mi NNE 4.6 mph - N/A   Mostly Cloudy
5:58 AM 64.8 °F 36.9 °F 36% 29.52 in 10.0 mi NNE 4.6 mph - N/A   Mostly Cloudy
6:58 AM 62.4 °F 37.9 °F 40% 29.55 in 10.0 mi NNW 3.5 mph - N/A   Overcast
7:58 AM 63.9 °F 36.9 °F 37% 29.54 in 10.0 mi WNW 3.5 mph - N/A   Overcast
9:58 AM 62.8 °F 42.1 °F 47% 29.57 in 10.0 mi Calm Calm - N/A   Mostly Cloudy
10:58 AM 65.8 °F 41.2 °F 41% 29.57 in 10.0 mi Calm Calm - N/A   Scattered Clouds
11:58 AM 70.7 °F 40.6 °F 34% 29.56 in 10.0 mi Calm Calm - N/A   Scattered Clouds
12:58 PM 70.9 °F 41.2 °F 34% 29.55 in 10.0 mi Calm Calm - N/A   Mostly Cloudy
1:58 PM 75.0 °F 42.4 °F 31% 29.54 in 10.0 mi East 6.9 mph - N/A   Mostly Cloudy
2:58 PM 75.2 °F 39.9 °F 28% 29.51 in 10.0 mi NE 5.8 mph - N/A   Mostly Cloudy
3:58 PM 75.2 °F 39.7 °F 28% 29.49 in 10.0 mi NNE 5.8 mph - N/A   Mostly Cloudy
4:58 PM 76.1 °F 41.4 °F 29% 29.47 in 10.0 mi ESE 10.4 mph - N/A   Mostly Cloudy
5:58 PM 74.8 °F 41.2 °F 30% 29.47 in 10.0 mi South 6.9 mph - N/A   Mostly Cloudy
6:13 PM 75.2 °F 41.0 °F 29% 29.47 in 10.0 mi SSE 5.8 mph - N/A Rain Light Rain
6:52 PM 68.0 °F 51.8 °F 56% 29.50 in 10.0 mi WNW 3.5 mph - N/A   Mostly Cloudy
6:58 PM 68.4 °F 50.5 °F 53% 29.50 in 10.0 mi West 3.5 mph - 0.05 in   Mostly Cloudy
7:27 PM 69.8 °F 48.2 °F 46% 29.48 in 10.0 mi SW 3.5 mph - N/A Rain Light Rain Showers
8:10 PM 68.0 °F 46.4 °F 46% 29.48 in 10.0 mi WSW 3.5 mph - N/A   Overcast
8:58 PM 70.2 °F 41.9 °F 36% 29.49 in 10.0 mi West 6.9 mph - N/A   Mostly Cloudy
9:58 PM 67.6 °F 43.3 °F 41% 29.49 in 10.0 mi WNW 3.5 mph - N/A   Scattered Clouds
10:58 PM 65.8 °F 42.6 °F 43% 29.50 in 10.0 mi Calm Calm - N/A   Clear
11:58 PM 66.2 °F 42.4 °F 42% 29.50 in 10.0 mi NW 5.8 mph - N/A   Clear